DW8353 Weather Reports


time (UTC)temp
C
wind
direction
speed
KPH
gust
KPH
rain 1hr
cm
rain 24hr
cm
rain mn
cm
humidity
%
barometer
mb
20260506201541 14 200 1.6 11.3 0.00 0.00 0.00 97 1005.1
20260506200040 13 259 3.2 17.7 0.00 0.00 0.00 97 1005.2
20260506194555 13 192 0.0 9.7 0.00 0.00 0.00 97 1005.5
20260506193036 13 250 0.0 16.1 0.00 0.00 0.00 97 1005.5
20260506191536 13 219 1.6 12.9 0.00 0.00 0.00 96 1005.6
20260506190035 13 220 0.0 11.3 0.00 0.00 0.00 96 1005.9
20260506184534 13 199 0.0 17.7 0.00 0.00 0.00 96 1005.9
20260506183033 14 265 0.0 16.1 0.00 0.00 0.00 96 1005.9
20260506181535 14 179 0.0 0.0 0.00 0.00 0.00 96 1006.1
20260506180038 13 186 0.0 14.5 0.00 0.00 0.00 95 1005.9
20260506174534 15 190 0.0 9.7 0.00 0.00 0.00 95 1006.0
20260506173029 15 157 3.2 12.9 0.00 0.00 0.00 94 1006.1
20260506171531 15 167 0.0 3.2 0.00 0.00 0.00 93 1006.5
20260506170030 15 246 0.0 1.6 0.00 0.00 0.00 90 1007.0
20260506164526 16 225 0.0 12.9 0.00 0.00 0.00 87 1007.3
20260506163023 17 223 0.0 6.4 0.00 0.00 0.00 84 1007.3
20260506161523 17 269 0.0 11.3 0.00 0.00 0.00 82 1007.1
20260506160023 17 236 3.2 11.3 0.00 0.00 0.00 80 1007.2
20260506154520 18 263 0.0 14.5 0.00 0.00 0.00 80 1007.3
20260506153015 17 298 0.0 9.7 0.00 0.00 0.00 81 1007.6
20260506151528 17 240 0.0 14.5 0.00 0.00 0.00 82 1007.6
20260506150015 17 192 1.6 11.3 0.00 0.00 0.00 82 1007.7
20260506144513 17 206 0.0 12.9 0.00 0.00 0.00 82 1007.7
20260506143012 17 247 0.0 14.5 0.00 0.00 0.00 82 1007.9
20260506141511 17 260 0.0 16.1 0.00 0.00 0.00 83 1007.9
20260506140013 17 275 0.0 20.9 0.00 0.00 0.00 84 1007.8
20260506134506 16 262 1.6 14.5 0.00 0.00 0.00 86 1007.7
20260506133004 15 263 1.6 14.5 0.00 0.00 0.00 87 1007.6
20260506131508 16 201 0.0 4.8 0.00 0.00 0.00 88 1007.6
20260506130101 15 282 0.0 6.4 0.00 0.00 0.00 89 1007.9
20260506124558 14 209 0.0 8.0 0.00 0.00 0.00 90 1008.0
20260506123056 14 299 0.0 3.2 0.00 0.00 0.00 90 1008.3
20260506121554 14 252 0.0 0.0 0.00 0.00 0.00 91 1008.4
20260506120054 14 205 0.0 3.2 0.00 0.00 0.00 92 1008.3
20260506114600 13 258 0.0 8.0 0.00 0.00 0.00 92 1008.2
20260506113058 13 200 0.0 6.4 0.00 0.00 0.00 92 1008.2
20260506111555 13 244 0.0 12.9 0.00 0.00 0.00 92 1008.3
20260506110051 13 223 0.0 0.0 0.00 0.00 0.00 93 1008.2
20260506104556 12 226 0.0 0.0 0.00 0.00 0.00 94 1008.5
20260506103053 12 219 0.0 0.0 0.00 0.00 0.00 94 1008.3
20260506101550 12 211 0.0 0.0 0.00 0.00 0.00 94 1008.3
20260506100043 12 180 0.0 0.0 0.00 0.00 0.00 93 1008.1
20260506094541 12 187 0.0 0.0 0.00 0.00 0.00 93 1008.1
20260506093038 12 216 0.0 0.0 0.00 0.00 0.00 92 1008.0
20260506091537 12 208 0.0 0.0 0.00 0.00 0.00 92 1008.1
20260506090036 12 188 0.0 4.8 0.00 0.00 0.00 91 1008.1
20260506084540 12 238 0.0 1.6 0.00 0.00 0.00 91 1008.2
20260506083033 12 218 0.0 1.6 0.00 0.00 0.00 90 1008.2
20260506081530 12 189 0.0 0.0 0.00 0.00 0.00 89 1008.3
20260506073126 13 205 0.0 0.0 0.00 0.00 0.00 88 1008.3
20260506071524 13 254 0.0 6.4 0.00 0.00 0.00 87 1008.3
20260506061516 13 257 0.0 8.0 0.00 0.00 0.00 83 1008.3
20260506044503 15 192 0.0 8.0 0.00 0.00 0.00 78 1008.8
20260506043100 15 219 0.0 1.6 0.00 0.00 0.00 77 1008.9
20260506041559 15 211 0.0 14.5 0.00 0.00 0.00 77 1008.9
20260506040057 15 5 0.0 1.6 0.00 0.00 0.00 76 1008.8
20260506034557 16 266 0.0 12.9 0.00 0.00 0.00 75 1008.8
20260506033055 16 219 0.0 12.9 0.00 0.00 0.00 75 1009.0
20260506031556 16 217 0.0 3.2 0.00 0.00 0.00 75 1008.8
20260506030058 16 252 0.0 0.0 0.00 0.00 0.00 74 1008.9
20260506024559 16 230 0.0 3.2 0.00 0.00 0.00 73 1008.8
20260506023059 16 215 0.0 0.0 0.00 0.00 0.00 72 1008.8
20260506021606 16 188 0.0 0.0 0.00 0.00 0.00 72 1008.7
20260506020053 16 235 0.0 0.0 0.00 0.00 0.00 72 1008.7
20260506014554 16 213 0.0 0.0 0.00 0.00 0.00 71 1008.7
20260506013054 16 257 0.0 0.0 0.00 0.00 0.00 71 1008.4
20260506011553 16 248 0.0 11.3 0.00 0.00 0.00 71 1008.3
20260506010107 17 218 0.0 0.0 0.00 0.00 0.00 70 1008.1
20260506004553 17 207 0.0 11.3 0.00 0.00 0.00 69 1008.0
20260506003053 17 239 0.0 9.7 0.00 0.00 0.00 69 1007.8
20260506001550 17 228 0.0 1.6 0.00 0.00 0.00 68 1007.6
20260506000050 18 246 0.0 12.9 0.00 0.00 0.00 66 1007.3
20260505234605 18 231 0.0 6.4 0.00 0.00 0.00 66 1007.2
20260505233048 18 215 1.6 9.7 0.00 0.00 0.00 65 1007.0
20260505231549 19 199 0.0 11.3 0.00 0.00 0.00 64 1006.9
20260505230047 20 211 0.0 20.9 0.00 0.00 0.00 62 1006.7
20260505224547 20 227 0.0 12.9 0.00 0.00 0.00 60 1006.6
20260505223046 21 183 1.6 22.5 0.00 0.00 0.00 58 1006.3
20260505221546 22 178 0.0 14.5 0.00 0.00 0.00 58 1006.0
20260505220048 22 237 3.2 19.3 0.00 0.00 0.00 56 1006.2
20260505214602 22 319 0.0 16.1 0.00 0.00 0.00 55 1006.4
20260505213056 22 219 0.0 17.7 0.00 0.00 0.00 54 1006.3
20260505211541 22 171 1.6 12.9 0.00 0.00 0.00 56 1006.2
20260505210040 22 185 3.2 22.5 0.00 0.00 0.00 54 1006.1
20260505204550 23 192 4.8 19.3 0.00 0.00 0.00 52 1006.2
20260505203046 23 273 4.8 20.9 0.00 0.00 0.00 51 1005.9